Dublin, Ireland

1:04 AM GMT on February 28, 2017 (GMT +0000)
Dublin Airport

Weather History for EIDW - May, 2014

Change the Weather History Date:

Wednesday, May 7, 2014

  Actual Average Record
Temperature  
Mean Temperature 50 °F -  
Max Temperature 57 °F 59 °F 66 °F (2008)
Min Temperature 44 °F 45 °F 32 °F (1997)
Degree Days  
Heating Degree Days 14    
Moisture  
Dew Point 44 °F    
Average Humidity 78    
Maximum Humidity 94    
Minimum Humidity 54    
Precipitation  
Precipitation 0.08 in 0.07 in - ()
Sea Level Pressure  
Sea Level Pressure 29.62 in    
Wind  
Wind Speed 18 mph ()    
Max Wind Speed 32 mph    
Max Gust Speed 41 mph    
Visibility 9.9 miles    
Events Rain    
Averages and records for this station are not official NWS values.
T = Trace of Precipitation, MM = Missing Value Source: Averaged Metar Reports

Daily Weather History Graph

Daily Weather History Graph

Search for Another Location

Airport or City:

Trip Planner

Search our weather history database for the weather conditions in past years. The results will help you decide how hot, cold, wet, or windy it might be!

Date:

Astronomy

May. 07, 2014 Rise Set
Actual Time 5:39 AM IST 9:05 PM IST
Civil Twilight 4:57 AM IST 9:47 PM IST
Nautical Twilight 3:59 AM IST 10:45 PM IST
Astronomical Twilight 2:36 AM IST 12:12 AM IST
Moon 12:56 PM IST (5/7) 2:33 AM IST (5/7)
Length of Visible Light 16h 50m
Length of Day
15h 25m
First Quarter, 53% of the Moon is Illuminated
May 7
First Quarter
May 14
Full
May 21
Last Quarter
May 28
New
Jun 5
First Quarter

Hourly Weather History & Observations

Time (IST) Temp. Windchill Dew Point Humidity Pressure Visibility Wind Dir Wind Speed Gust Speed Precip Events Conditions
12:00 AM 47 °F - 42 °F 75% 29.55 in 19 mi SW 13.4 mph - -   Partly Cloudy
12:00 AM 46.4 °F 40.4 °F 41.0 °F 81% 29.53 in 6.2 mi SW 13.8 mph - N/A   Scattered Clouds
12:30 AM 46.4 °F 40.1 °F 41.0 °F 81% 29.53 in 6.2 mi SW 15.0 mph - N/A   Partly Cloudy
1:00 AM 46 °F - 41 °F 78% 29.55 in 19 mi SW 17.9 mph - -   Partly Cloudy
1:00 AM 46.4 °F 39.2 °F 41.0 °F 81% 29.53 in 6.2 mi SW 18.4 mph - N/A   Scattered Clouds
1:30 AM 46.4 °F 39.8 °F 41.0 °F 81% 29.53 in 6.2 mi SW 16.1 mph - N/A   Partly Cloudy
2:00 AM 46 °F - 41 °F 77% 29.56 in 19 mi SW 15.7 mph - -   Scattered Clouds
2:00 AM 46.4 °F 39.5 °F 41.0 °F 81% 29.53 in 6.2 mi SW 17.3 mph - N/A   Partly Cloudy
2:30 AM 46.4 °F 39.8 °F 41.0 °F 81% 29.53 in 6.2 mi SW 16.1 mph - N/A   Partly Cloudy
3:00 AM 46 °F - 41 °F 77% 29.57 in 19 mi SW 15.7 mph - -   Scattered Clouds
3:00 AM 44.6 °F 37.8 °F 41.0 °F 87% 29.53 in 6.2 mi SW 15.0 mph - N/A   Partly Cloudy
3:30 AM 44.6 °F 37.8 °F 41.0 °F 87% 29.56 in 6.2 mi SW 15.0 mph - N/A   Scattered Clouds
4:00 AM 45 °F - 41 °F 82% 29.58 in 19 mi SW 15.7 mph - - Rain Light Rain Showers
4:00 AM 44.6 °F 37.8 °F 41.0 °F 87% 29.56 in 6.2 mi SW 15.0 mph - N/A   Partly Cloudy
4:30 AM 44.6 °F 37.4 °F 41.0 °F 87% 29.56 in 6.2 mi SW 16.1 mph - N/A   Scattered Clouds
5:00 AM 46 °F - 42 °F 80% 29.59 in 19 mi SW 13.4 mph - -   Scattered Clouds
5:00 AM 46.4 °F 40.4 °F 41.0 °F 81% 29.56 in 6.2 mi SW 13.8 mph - N/A   Mostly Cloudy
5:30 AM 46.4 °F 39.5 °F 42.8 °F 87% 29.56 in 6.2 mi SW 17.3 mph - N/A   Mostly Cloudy
6:00 AM 46 °F - 42 °F 79% 29.60 in 19 mi SW 15.7 mph - -   Scattered Clouds
6:00 AM 46.4 °F 39.8 °F 41.0 °F 81% 29.56 in 6.2 mi SW 16.1 mph - N/A   Mostly Cloudy
6:30 AM 46.4 °F 39.8 °F 41.0 °F 81% 29.59 in 6.2 mi SW 16.1 mph - N/A   Mostly Cloudy
7:00 AM 46 °F - 42 °F 79% 29.61 in 19 mi SW 15.7 mph - -   Partly Cloudy
7:00 AM 46.4 °F 39.8 °F 41.0 °F 81% 29.59 in 6.2 mi SW 16.1 mph - N/A   Mostly Cloudy
7:30 AM 46.4 °F 39.8 °F 42.8 °F 87% 29.59 in 6.2 mi SW 16.1 mph - N/A   Mostly Cloudy
8:00 AM 47 °F - 43 °F 82% 29.60 in 19 mi SW 17.9 mph - - Rain Light Rain
8:00 AM 46.4 °F 39.5 °F 42.8 °F 87% 29.59 in 6.2 mi SW 17.3 mph 28.8 mph N/A Rain Light Rain
8:30 AM 48.2 °F - 44.6 °F 87% 29.59 in 6.2 mi SW 18.4 mph - N/A   Mostly Cloudy
9:00 AM 49 °F - 45 °F 79% 29.60 in 19 mi SW 20.1 mph - - Rain Light Rain
9:00 AM 50.0 °F - 44.6 °F 82% 29.59 in 6.2 mi SW 19.6 mph - N/A   Mostly Cloudy
9:30 AM 50.0 °F - 44.6 °F 82% 29.59 in 6.2 mi SW 21.9 mph - N/A   Mostly Cloudy
10:00 AM 51 °F - 45 °F 74% 29.61 in 19 mi SW 24.6 mph - -   Partly Cloudy
10:00 AM 50.0 °F - 44.6 °F 82% 29.59 in 6.2 mi SW 21.9 mph - N/A   Mostly Cloudy
10:30 AM 51.8 °F - 44.6 °F 76% 29.59 in 6.2 mi SW 23.0 mph - N/A   Mostly Cloudy
11:00 AM 54 °F - 46 °F 66% 29.61 in 19 mi WSW 22.4 mph - -   Mostly Cloudy
11:00 AM 53.6 °F - 44.6 °F 72% 29.59 in 6.2 mi SW 19.6 mph - N/A   Mostly Cloudy
11:30 AM 51.8 °F - 46.4 °F 82% 29.59 in 6.2 mi WSW 24.2 mph - N/A Rain Light Rain Showers
12:00 PM 54 °F - 49 °F 77% 29.62 in 19 mi WSW 24.6 mph - - Rain Light Rain Showers
12:00 PM 53.6 °F - 48.2 °F 82% 29.59 in 6.2 mi WSW 24.2 mph 39.1 mph N/A   Mostly Cloudy
12:30 PM 55.4 °F - 48.2 °F 77% 29.62 in 6.2 mi WSW 25.3 mph - N/A   Mostly Cloudy
1:00 PM 55 °F - 49 °F 76% 29.63 in 19 mi WSW 20.1 mph - - Rain Light Rain Showers
1:00 PM 53.6 °F - 50.0 °F 88% 29.62 in 6.2 mi WSW 21.9 mph 33.4 mph N/A Rain Light Rain Showers
1:30 PM 51.8 °F - 50.0 °F 94% 29.62 in 3.1 mi West 25.3 mph - N/A Rain Light Rain Showers
2:00 PM 54 °F - 48 °F 75% 29.63 in 4 mi West 26.8 mph - - Rain Light Rain Showers
2:00 PM 55.4 °F - 48.2 °F 77% 29.62 in 4.3 mi WSW 27.6 mph - N/A Rain Light Rain Showers
2:30 PM 55.4 °F - 50.0 °F 82% 29.62 in 6.2 mi West 25.3 mph 38.0 mph N/A   Mostly Cloudy
3:00 PM 55 °F - 48 °F 70% 29.65 in 9 mi West 24.6 mph - - Rain Light Rain Showers
3:00 PM 55.4 °F - 48.2 °F 77% 29.62 in 6.2 mi West 27.6 mph - N/A Rain Light Rain Showers
3:30 PM 55.4 °F - 46.4 °F 72% 29.62 in 6.2 mi West 25.3 mph - N/A Rain Light Rain Showers
4:00 PM 56 °F - 47 °F 63% 29.65 in 19 mi West 26.8 mph - - Rain Light Rain Showers
4:00 PM 55.4 °F - 46.4 °F 72% 29.65 in 6.2 mi West 28.8 mph 40.3 mph N/A   Mostly Cloudy
4:30 PM 55.4 °F - 46.4 °F 72% 29.65 in 6.2 mi West 32.2 mph - N/A   Mostly Cloudy
5:00 PM 58 °F - 46 °F 54% 29.67 in 19 mi West 26.8 mph - - Rain Light Rain Showers
5:00 PM 57.2 °F - 46.4 °F 67% 29.65 in 6.2 mi West 28.8 mph - N/A   Mostly Cloudy
5:30 PM 55.4 °F - 44.6 °F 67% 29.68 in 6.2 mi WSW 27.6 mph 40.3 mph N/A Rain Light Rain Showers
6:00 PM 54 °F - 45 °F 62% 29.69 in 19 mi West 26.8 mph - - Rain Light Rain Showers
6:00 PM 53.6 °F - 44.6 °F 72% 29.68 in 6.2 mi West 25.3 mph - N/A Rain Light Rain Showers
6:30 PM 53.6 °F - 44.6 °F 72% 29.68 in 6.2 mi West 28.8 mph 41.4 mph N/A   Mostly Cloudy
7:00 PM 54 °F - 45 °F 64% 29.69 in 25 mi West 24.6 mph - - Rain Light Rain Showers
7:00 PM 53.6 °F - 44.6 °F 72% 29.68 in 6.2 mi West 24.2 mph - N/A   Mostly Cloudy
7:30 PM 51.8 °F - 44.6 °F 76% 29.68 in 6.2 mi West 25.3 mph - N/A Rain Light Rain Showers
8:00 PM 53 °F - 45 °F 65% 29.70 in 19 mi WSW 20.1 mph - - Rain Light Rain Showers
8:00 PM 51.8 °F - 44.6 °F 76% 29.68 in 6.2 mi WSW 19.6 mph - N/A   Mostly Cloudy
8:30 PM 51.8 °F - 44.6 °F 76% 29.71 in 6.2 mi West 20.7 mph - N/A Rain Light Rain Showers
9:00 PM 51 °F - 45 °F 74% 29.73 in 19 mi West 20.1 mph - - Rain Light Rain Showers
9:00 PM 50.0 °F - 46.4 °F 87% 29.71 in 6.2 mi West 20.7 mph - N/A   Mostly Cloudy
9:30 PM 50.0 °F - 44.6 °F 82% 29.71 in 6.2 mi WSW 21.9 mph 33.4 mph N/A   Mostly Cloudy
10:00 PM 50 °F - 46 °F 81% 29.74 in 19 mi WSW 17.9 mph - - Rain Light Rain Showers
10:00 PM 50.0 °F - 46.4 °F 87% 29.71 in 6.2 mi WSW 17.3 mph - N/A   Mostly Cloudy
10:30 PM 50.0 °F - 44.6 °F 82% 29.74 in 6.2 mi WSW 16.1 mph - N/A Rain Light Rain Showers
11:00 PM 50 °F - 45 °F 77% 29.75 in 16 mi WSW 15.7 mph - - Rain Light Rain Showers
11:00 PM 50.0 °F - 44.6 °F 82% 29.74 in 6.2 mi WSW 16.1 mph - N/A Rain Light Rain Showers
11:30 PM 50.0 °F - 44.6 °F 82% 29.74 in 6.2 mi WSW 17.3 mph - N/A   Mostly Cloudy